| time (UTC) | temp F | wind direction | speed knots | gust knots | rain 1hr in | rain 24hr in | rain mn in | humidity % | barometer mb |
| 20260505023039 | 51 | 313 | 0.0 | 0.0 | 0.00 | 0.00 | 0.00 | 78 | 1015.7 |
| 20260505021536 | 52 | 313 | 0.0 | 1.7 | 0.00 | 0.00 | 0.00 | 77 | 1015.7 |
| 20260505020032 | 53 | 313 | 0.0 | 1.7 | 0.00 | 0.00 | 0.00 | 74 | 1015.9 |
| 20260505014534 | 54 | 315 | 0.0 | 1.7 | 0.00 | 0.00 | 0.00 | 72 | 1016.0 |
| 20260505013025 | 56 | 316 | 0.9 | 5.2 | 0.00 | 0.00 | 0.00 | 70 | 1016.1 |
| 20260505011525 | 56 | 256 | 0.0 | 5.2 | 0.00 | 0.00 | 0.00 | 69 | 1016.2 |
| 20260505010025 | 56 | 228 | 0.0 | 5.2 | 0.00 | 0.00 | 0.00 | 69 | 1016.3 |
| 20260505004527 | 57 | 245 | 0.9 | 5.2 | 0.00 | 0.00 | 0.00 | 69 | 1016.4 |
| 20260505003118 | 57 | 280 | 0.9 | 4.3 | 0.00 | 0.00 | 0.00 | 69 | 1016.4 |
| 20260505001515 | 56 | 259 | 0.0 | 3.5 | 0.00 | 0.00 | 0.00 | 71 | 1016.6 |
| 20260505000011 | 57 | 273 | 0.0 | 3.5 | 0.00 | 0.00 | 0.00 | 70 | 1016.7 |
| 20260504234510 | 56 | 311 | 0.0 | 3.5 | 0.00 | 0.00 | 0.00 | 71 | 1016.8 |
| 20260504233007 | 56 | 316 | 0.0 | 2.6 | 0.00 | 0.00 | 0.00 | 71 | 1016.8 |
| 20260504231506 | 56 | 261 | 0.0 | 1.7 | 0.00 | 0.00 | 0.00 | 71 | 1016.9 |
| 20260504230005 | 56 | 261 | 0.0 | 1.7 | 0.00 | 0.00 | 0.00 | 72 | 1017.0 |
| 20260504224503 | 56 | 265 | 0.0 | 1.7 | 0.00 | 0.00 | 0.00 | 70 | 1017.2 |
| 20260504223002 | 57 | 261 | 0.0 | 4.3 | 0.00 | 0.00 | 0.00 | 70 | 1017.3 |
| 20260504221557 | 56 | 194 | 0.0 | 0.9 | 0.00 | 0.00 | 0.00 | 73 | 1017.3 |
| 20260504220056 | 56 | 194 | 0.0 | 1.7 | 0.00 | 0.00 | 0.00 | 72 | 1017.3 |
| 20260504214554 | 56 | 194 | 0.0 | 0.9 | 0.00 | 0.00 | 0.00 | 72 | 1017.4 |
| 20260504213102 | 57 | 194 | 0.0 | 0.9 | 0.00 | 0.00 | 0.00 | 71 | 1017.3 |
| 20260504211553 | 57 | 194 | 0.0 | 1.7 | 0.00 | 0.00 | 0.00 | 72 | 1017.4 |
| 20260504210058 | 57 | 194 | 0.0 | 1.7 | 0.00 | 0.00 | 0.00 | 73 | 1017.5 |
| 20260504204553 | 56 | 194 | 0.0 | 0.0 | 0.00 | 0.00 | 0.00 | 73 | 1017.5 |
| 20260504203106 | 57 | 194 | 0.0 | 1.7 | 0.00 | 0.00 | 0.00 | 71 | 1017.5 |
| 20260504201555 | 58 | 194 | 0.0 | 1.7 | 0.00 | 0.00 | 0.00 | 67 | 1017.5 |
| 20260504200054 | 58 | 194 | 0.0 | 0.0 | 0.00 | 0.00 | 0.00 | 66 | 1017.5 |
| 20260504194550 | 59 | 194 | 0.0 | 1.7 | 0.00 | 0.00 | 0.00 | 64 | 1017.5 |
| 20260504193053 | 60 | 244 | 0.0 | 3.5 | 0.00 | 0.00 | 0.00 | 62 | 1017.3 |
| 20260504191556 | 60 | 207 | 0.0 | 3.5 | 0.00 | 0.00 | 0.00 | 61 | 1017.3 |
| 20260504190049 | 61 | 194 | 0.0 | 1.7 | 0.00 | 0.00 | 0.00 | 60 | 1017.1 |
| 20260504184548 | 62 | 194 | 0.0 | 1.7 | 0.00 | 0.00 | 0.00 | 58 | 1017.0 |
| 20260504183047 | 63 | 194 | 0.0 | 0.9 | 0.00 | 0.00 | 0.00 | 55 | 1016.8 |
| 20260504181548 | 65 | 249 | 0.9 | 4.3 | 0.00 | 0.00 | 0.00 | 52 | 1016.7 |
| 20260504180046 | 66 | 238 | 0.9 | 5.2 | 0.00 | 0.00 | 0.00 | 50 | 1016.7 |
| 20260504174546 | 67 | 259 | 1.7 | 7.0 | 0.00 | 0.00 | 0.00 | 50 | 1016.5 |
| 20260504173046 | 68 | 252 | 2.6 | 9.6 | 0.00 | 0.00 | 0.00 | 48 | 1016.3 |
| 20260504171548 | 69 | 262 | 2.6 | 8.7 | 0.00 | 0.00 | 0.00 | 47 | 1016.3 |
| 20260504090110 | 66 | 198 | 0.9 | 3.5 | 0.00 | 0.00 | 0.00 | 54 | 1018.7 |
| 20260504081553 | 62 | 150 | 0.9 | 4.3 | 0.00 | 0.00 | 0.00 | 60 | 1019.1 |
| 20260504044604 | 42 | 267 | 0.0 | 0.0 | 0.00 | 0.00 | 0.00 | 92 | 1019.0 |
| 20260504043058 | 41 | 267 | 0.0 | 0.0 | 0.00 | 0.00 | 0.00 | 92 | 1018.9 |
| 20260504041556 | 41 | 267 | 0.0 | 0.0 | 0.00 | 0.00 | 0.00 | 92 | 1018.9 |
| 20260504040106 | 41 | 267 | 0.0 | 0.0 | 0.00 | 0.00 | 0.00 | 92 | 1018.8 |
| 20260504034618 | 41 | 267 | 0.0 | 0.0 | 0.00 | 0.00 | 0.00 | 92 | 1018.9 |
| 20260504033054 | 41 | 267 | 0.0 | 0.0 | 0.00 | 0.00 | 0.00 | 91 | 1018.9 |
| 20260504031552 | 42 | 267 | 0.0 | 0.0 | 0.00 | 0.00 | 0.00 | 91 | 1018.8 |
| 20260504030118 | 41 | 267 | 0.0 | 0.0 | 0.00 | 0.00 | 0.00 | 91 | 1018.8 |
| 20260504024555 | 41 | 267 | 0.0 | 0.0 | 0.00 | 0.00 | 0.00 | 91 | 1018.9 |